Time,TemperatureF,DewpointF,PressureIn,WindDirection,WindDirectionDegrees,WindSpeedMPH,WindSpeedGustMPH,Humidity,HourlyPrecipIn,Conditions,Clouds,dailyrainin,SolarRadiationWatts/m^2,SoftwareType,DateUTC
2013-01-26 00:12:00,56.0,54.0,-100.00,SW,218,2.0,4.0,94,0.00,,,0.00,0.000000,,2013-01-26 06:12:00,
2013-01-26 00:21:00,56.0,54.0,-100.00,SW,218,2.0,4.0,94,0.00,,,0.00,0.000000,,2013-01-26 06:21:00,
2013-01-26 00:32:00,56.0,54.0,-100.00,SW,218,2.0,4.0,94,0.00,,,0.00,0.000000,,2013-01-26 06:32:00,
2013-01-26 00:41:00,56.0,54.0,-100.00,SW,218,2.0,4.0,94,0.00,,,0.00,0.000000,,2013-01-26 06:41:00,
2013-01-26 00:50:00,57.0,56.0,-100.00,SSW,212,3.0,6.0,95,0.00,,,0.00,0.000000,,2013-01-26 06:50:00,
2013-01-26 01:21:00,57.0,56.0,-100.00,SSW,212,3.0,6.0,95,0.00,,,0.00,0.000000,,2013-01-26 07:21:00,
2013-01-26 01:33:00,57.0,56.0,-100.00,SSW,212,3.0,6.0,95,0.00,,,0.00,0.000000,,2013-01-26 07:33:00,
2013-01-26 01:41:00,57.0,56.0,-100.00,SSW,212,3.0,6.0,95,0.00,,,0.00,0.000000,,2013-01-26 07:41:00,
2013-01-26 01:50:00,57.0,56.0,-100.00,WSW,251,3.0,6.0,95,0.00,,,0.00,0.000000,,2013-01-26 07:50:00,
2013-01-26 02:11:00,57.0,56.0,-100.00,WSW,251,3.0,6.0,95,0.00,,,0.00,0.000000,,2013-01-26 08:11:00,
2013-01-26 02:21:00,57.0,56.0,-100.00,WSW,251,3.0,6.0,95,0.00,,,0.00,0.000000,,2013-01-26 08:21:00,
2013-01-26 02:32:00,57.0,56.0,-100.00,WSW,251,3.0,6.0,95,0.00,,,0.00,0.000000,,2013-01-26 08:32:00,
2013-01-26 02:42:00,57.0,56.0,-100.00,WSW,251,3.0,6.0,95,0.00,,,0.00,0.000000,,2013-01-26 08:42:00,
2013-01-26 02:50:00,56.0,55.0,-100.00,WSW,258,3.0,5.0,95,0.00,,,0.00,0.000000,,2013-01-26 08:50:00,
2013-01-26 03:11:00,56.0,55.0,-100.00,WSW,258,3.0,5.0,95,0.00,,,0.00,0.000000,,2013-01-26 09:11:00,
2013-01-26 03:22:00,56.0,55.0,-100.00,WSW,258,3.0,5.0,95,0.00,,,0.00,0.000000,,2013-01-26 09:22:00,
2013-01-26 03:32:00,56.0,55.0,-100.00,WSW,258,3.0,5.0,95,0.00,,,0.00,0.000000,,2013-01-26 09:32:00,
2013-01-26 03:42:00,56.0,55.0,-100.00,WSW,258,3.0,5.0,95,0.00,,,0.00,0.000000,,2013-01-26 09:42:00,
2013-01-26 03:50:00,55.0,54.0,-100.00,WSW,248,2.0,5.0,95,0.00,,,0.00,0.000000,,2013-01-26 09:50:00,
2013-01-26 04:21:00,55.0,54.0,-100.00,WSW,248,2.0,5.0,95,0.00,,,0.00,0.000000,,2013-01-26 10:21:00,
2013-01-26 04:32:00,55.0,54.0,-100.00,WSW,248,2.0,5.0,95,0.00,,,0.00,0.000000,,2013-01-26 10:32:00,
2013-01-26 04:42:00,55.0,54.0,-100.00,WSW,248,2.0,5.0,95,0.00,,,0.00,0.000000,,2013-01-26 10:42:00,
2013-01-26 04:50:00,54.0,53.0,-100.00,WSW,256,2.0,4.0,96,0.00,,,0.00,0.000000,,2013-01-26 10:50:00,
2013-01-26 05:12:00,54.0,53.0,-100.00,WSW,256,2.0,4.0,96,0.00,,,0.00,0.000000,,2013-01-26 11:12:00,
2013-01-26 05:22:00,54.0,53.0,-100.00,WSW,256,2.0,4.0,96,0.00,,,0.00,0.000000,,2013-01-26 11:22:00,
2013-01-26 05:32:00,54.0,53.0,-100.00,WSW,256,2.0,4.0,96,0.00,,,0.00,0.000000,,2013-01-26 11:32:00,
2013-01-26 05:42:00,54.0,53.0,-100.00,WSW,256,2.0,4.0,96,0.00,,,0.00,0.000000,,2013-01-26 11:42:00,
2013-01-26 05:50:00,55.0,54.0,-100.00,West,268,2.0,3.0,96,0.00,,,0.00,0.000000,,2013-01-26 11:50:00,
2013-01-26 06:12:00,55.0,54.0,-100.00,West,268,2.0,3.0,96,0.00,,,0.00,0.000000,,2013-01-26 12:12:00,
2013-01-26 06:22:00,55.0,54.0,-100.00,West,268,2.0,3.0,96,0.00,,,0.00,0.000000,,2013-01-26 12:22:00,
2013-01-26 06:33:00,55.0,54.0,-100.00,West,268,2.0,3.0,96,0.00,,,0.00,0.000000,,2013-01-26 12:33:00,
2013-01-26 06:42:00,55.0,54.0,-100.00,West,268,2.0,3.0,96,0.00,,,0.00,0.000000,,2013-01-26 12:42:00,
2013-01-26 06:50:00,54.0,53.0,-100.00,West,262,2.0,4.0,96,0.00,,,0.00,1.000000,,2013-01-26 12:50:00,
2013-01-26 07:12:00,54.0,53.0,-100.00,West,262,2.0,4.0,96,0.00,,,0.00,1.000000,,2013-01-26 13:12:00,
2013-01-26 07:22:00,54.0,53.0,-100.00,West,262,2.0,4.0,96,0.00,,,0.00,1.000000,,2013-01-26 13:22:00,
2013-01-26 07:32:00,54.0,53.0,-100.00,West,262,2.0,4.0,96,0.00,,,0.00,1.000000,,2013-01-26 13:32:00,
2013-01-26 07:42:00,54.0,53.0,-100.00,West,262,2.0,4.0,96,0.00,,,0.00,1.000000,,2013-01-26 13:42:00,
2013-01-26 07:50:00,57.0,56.0,-100.00,West,270,1.0,3.0,96,0.00,,,0.00,58.000000,,2013-01-26 13:50:00,
2013-01-26 08:22:00,57.0,56.0,-100.00,West,270,1.0,3.0,96,0.00,,,0.00,58.000000,,2013-01-26 14:22:00,
2013-01-26 08:32:00,57.0,56.0,-100.00,West,270,1.0,3.0,96,0.00,,,0.00,58.000000,,2013-01-26 14:32:00,
2013-01-26 08:43:00,57.0,56.0,-100.00,West,270,1.0,3.0,96,0.00,,,0.00,58.000000,,2013-01-26 14:43:00,
2013-01-26 08:50:00,61.0,60.0,-100.00,WNW,282,4.0,6.0,95,0.00,,,0.00,240.000000,,2013-01-26 14:50:00,
2013-01-26 09:22:00,61.0,60.0,-100.00,WNW,282,4.0,6.0,95,0.00,,,0.00,240.000000,,2013-01-26 15:22:00,
2013-01-26 09:32:00,61.0,60.0,-100.00,WNW,282,4.0,6.0,95,0.00,,,0.00,240.000000,,2013-01-26 15:32:00,
2013-01-26 09:43:00,61.0,60.0,-100.00,WNW,282,4.0,6.0,95,0.00,,,0.00,240.000000,,2013-01-26 15:43:00,
2013-01-26 09:50:00,65.0,62.0,-100.00,West,259,4.0,6.0,91,0.00,,,0.00,392.000000,,2013-01-26 15:50:00,
2013-01-26 10:12:00,65.0,62.0,-100.00,West,259,4.0,6.0,91,0.00,,,0.00,392.000000,,2013-01-26 16:12:00,
2013-01-26 10:22:00,65.0,62.0,-100.00,West,259,4.0,6.0,91,0.00,,,0.00,392.000000,,2013-01-26 16:22:00,
2013-01-26 10:33:00,65.0,62.0,-100.00,West,259,4.0,6.0,91,0.00,,,0.00,392.000000,,2013-01-26 16:33:00,
2013-01-26 10:42:00,65.0,62.0,-100.00,West,259,4.0,6.0,91,0.00,,,0.00,392.000000,,2013-01-26 16:42:00,
2013-01-26 10:50:00,67.0,60.0,-100.00,NW,310,6.0,9.0,79,0.00,,,0.00,542.000000,,2013-01-26 16:50:00,
2013-01-26 11:22:00,67.0,60.0,-100.00,NW,310,6.0,9.0,79,0.00,,,0.00,542.000000,,2013-01-26 17:22:00,
2013-01-26 11:33:00,67.0,60.0,-100.00,NW,310,6.0,9.0,79,0.00,,,0.00,542.000000,,2013-01-26 17:33:00,
2013-01-26 11:42:00,67.0,60.0,-100.00,NW,310,6.0,9.0,79,0.00,,,0.00,542.000000,,2013-01-26 17:42:00,
2013-01-26 11:50:00,69.0,60.0,-100.00,NW,319,4.0,8.0,74,0.00,,,0.00,591.000000,,2013-01-26 17:50:00,
2013-01-26 12:22:00,69.0,60.0,-100.00,NW,319,4.0,8.0,74,0.00,,,0.00,591.000000,,2013-01-26 18:22:00,
2013-01-26 12:33:00,69.0,60.0,-100.00,NW,319,4.0,8.0,74,0.00,,,0.00,591.000000,,2013-01-26 18:33:00,
2013-01-26 12:42:00,69.0,60.0,-100.00,NW,319,4.0,8.0,74,0.00,,,0.00,591.000000,,2013-01-26 18:42:00,
2013-01-26 12:50:00,71.0,59.0,-100.00,North,5,4.0,9.0,67,0.00,,,0.00,496.000000,,2013-01-26 18:50:00,
2013-01-26 13:12:00,71.0,59.0,-100.00,North,5,4.0,9.0,67,0.00,,,0.00,496.000000,,2013-01-26 19:12:00,
2013-01-26 13:22:00,71.0,59.0,-100.00,North,5,4.0,9.0,67,0.00,,,0.00,496.000000,,2013-01-26 19:22:00,
2013-01-26 13:32:00,71.0,59.0,-100.00,North,5,4.0,9.0,67,0.00,,,0.00,496.000000,,2013-01-26 19:32:00,
2013-01-26 13:42:00,71.0,59.0,-100.00,North,5,4.0,9.0,67,0.00,,,0.00,496.000000,,2013-01-26 19:42:00,
2013-01-26 13:50:00,71.0,60.0,-100.00,South,176,4.0,9.0,68,0.00,,,0.00,357.000000,,2013-01-26 19:50:00,
2013-01-26 14:22:00,71.0,60.0,-100.00,South,176,4.0,9.0,68,0.00,,,0.00,357.000000,,2013-01-26 20:22:00,
2013-01-26 14:32:00,71.0,60.0,-100.00,South,176,4.0,9.0,68,0.00,,,0.00,357.000000,,2013-01-26 20:32:00,
2013-01-26 14:42:00,71.0,60.0,-100.00,South,176,4.0,9.0,68,0.00,,,0.00,357.000000,,2013-01-26 20:42:00,
2013-01-26 14:50:00,71.0,59.0,-100.00,SW,217,4.0,8.0,66,0.00,,,0.00,197.000000,,2013-01-26 20:50:00,
2013-01-26 15:12:00,71.0,59.0,-100.00,SW,217,4.0,8.0,66,0.00,,,0.00,197.000000,,2013-01-26 21:12:00,
2013-01-26 15:22:00,71.0,59.0,-100.00,SW,217,4.0,8.0,66,0.00,,,0.00,197.000000,,2013-01-26 21:22:00,
2013-01-26 15:32:00,71.0,59.0,-100.00,SW,217,4.0,8.0,66,0.00,,,0.00,197.000000,,2013-01-26 21:32:00,
2013-01-26 15:42:00,71.0,59.0,-100.00,SW,217,4.0,8.0,66,0.00,,,0.00,197.000000,,2013-01-26 21:42:00,
2013-01-26 15:50:00,70.0,57.0,-100.00,South,171,3.0,8.0,64,0.00,,,0.00,203.000000,,2013-01-26 21:50:00,
2013-01-26 16:12:00,70.0,57.0,-100.00,South,171,3.0,8.0,64,0.00,,,0.00,203.000000,,2013-01-26 22:12:00,
2013-01-26 16:22:00,70.0,57.0,-100.00,South,171,3.0,8.0,64,0.00,,,0.00,203.000000,,2013-01-26 22:22:00,
2013-01-26 16:32:00,70.0,57.0,-100.00,South,171,3.0,8.0,64,0.00,,,0.00,203.000000,,2013-01-26 22:32:00,
2013-01-26 16:42:00,70.0,57.0,-100.00,South,171,3.0,8.0,64,0.00,,,0.00,203.000000,,2013-01-26 22:42:00,
2013-01-26 16:50:00,68.0,58.0,-100.00,SSE,152,5.0,8.0,71,0.00,,,0.00,116.000000,,2013-01-26 22:50:00,
2013-01-26 17:12:00,68.0,58.0,-100.00,SSE,152,5.0,8.0,71,0.00,,,0.00,116.000000,,2013-01-26 23:12:00,
2013-01-26 17:22:00,68.0,58.0,-100.00,SSE,152,5.0,8.0,71,0.00,,,0.00,116.000000,,2013-01-26 23:22:00,
2013-01-26 17:32:00,68.0,58.0,-100.00,SSE,152,5.0,8.0,71,0.00,,,0.00,116.000000,,2013-01-26 23:32:00,
2013-01-26 17:42:00,68.0,58.0,-100.00,SSE,152,5.0,8.0,71,0.00,,,0.00,116.000000,,2013-01-26 23:42:00,
2013-01-26 17:50:00,65.0,59.0,-100.00,South,175,1.0,7.0,80,0.00,,,0.00,22.000000,,2013-01-26 23:50:00,
2013-01-26 18:21:00,65.0,59.0,-100.00,South,175,1.0,7.0,80,0.00,,,0.00,22.000000,,2013-01-27 00:21:00,
2013-01-26 18:32:00,65.0,59.0,-100.00,South,175,1.0,7.0,80,0.00,,,0.00,22.000000,,2013-01-27 00:32:00,
2013-01-26 18:42:00,65.0,59.0,-100.00,South,175,1.0,7.0,80,0.00,,,0.00,22.000000,,2013-01-27 00:42:00,
2013-01-26 18:50:00,63.0,58.0,-100.00,SSE,154,2.0,4.0,84,0.00,,,0.00,0.000000,,2013-01-27 00:50:00,
2013-01-26 19:22:00,63.0,58.0,-100.00,SSE,154,2.0,4.0,84,0.00,,,0.00,0.000000,,2013-01-27 01:22:00,
2013-01-26 19:32:00,63.0,58.0,-100.00,SSE,154,2.0,4.0,84,0.00,,,0.00,0.000000,,2013-01-27 01:32:00,
2013-01-26 19:42:00,63.0,58.0,-100.00,SSE,154,2.0,4.0,84,0.00,,,0.00,0.000000,,2013-01-27 01:42:00,
2013-01-26 19:50:00,61.0,58.0,-100.00,SSE,156,0.0,3.0,89,0.00,,,0.00,0.000000,,2013-01-27 01:50:00,
2013-01-26 20:12:00,61.0,58.0,-100.00,SSE,156,0.0,3.0,89,0.00,,,0.00,0.000000,,2013-01-27 02:12:00,
2013-01-26 20:22:00,61.0,58.0,-100.00,SSE,156,0.0,3.0,89,0.00,,,0.00,0.000000,,2013-01-27 02:22:00,
2013-01-26 20:32:00,61.0,58.0,-100.00,SSE,156,0.0,3.0,89,0.00,,,0.00,0.000000,,2013-01-27 02:32:00,
2013-01-26 20:42:00,61.0,58.0,-100.00,SSE,156,0.0,3.0,89,0.00,,,0.00,0.000000,,2013-01-27 02:42:00,
2013-01-26 20:50:00,58.0,56.0,-100.00,SSE,168,1.0,2.0,93,0.00,,,0.00,0.000000,,2013-01-27 02:50:00,
2013-01-26 21:11:00,58.0,56.0,-100.00,SSE,168,1.0,2.0,93,0.00,,,0.00,0.000000,,2013-01-27 03:11:00,
2013-01-26 21:21:00,58.0,56.0,-100.00,SSE,168,1.0,2.0,93,0.00,,,0.00,0.000000,,2013-01-27 03:21:00,
2013-01-26 21:32:00,58.0,56.0,-100.00,SSE,168,1.0,2.0,93,0.00,,,0.00,0.000000,,2013-01-27 03:32:00,
2013-01-26 21:42:00,58.0,56.0,-100.00,SSE,168,1.0,2.0,93,0.00,,,0.00,0.000000,,2013-01-27 03:42:00,
2013-01-26 21:50:00,58.0,56.0,-100.00,NNE,27,1.0,6.0,94,0.00,,,0.00,0.000000,,2013-01-27 03:50:00,
2013-01-26 22:21:00,58.0,56.0,-100.00,NNE,27,1.0,6.0,94,0.00,,,0.00,0.000000,,2013-01-27 04:21:00,
2013-01-26 22:32:00,58.0,56.0,-100.00,NNE,27,1.0,6.0,94,0.00,,,0.00,0.000000,,2013-01-27 04:32:00,
2013-01-26 22:41:00,58.0,56.0,-100.00,NNE,27,1.0,6.0,94,0.00,,,0.00,0.000000,,2013-01-27 04:41:00,
2013-01-26 22:50:00,57.0,56.0,-100.00,NE,48,0.0,3.0,95,0.00,,,0.00,0.000000,,2013-01-27 04:50:00,
2013-01-26 23:22:00,57.0,56.0,-100.00,NE,48,0.0,3.0,95,0.00,,,0.00,0.000000,,2013-01-27 05:22:00,
2013-01-26 23:32:00,57.0,56.0,-100.00,NE,48,0.0,3.0,95,0.00,,,0.00,0.000000,,2013-01-27 05:32:00,
2013-01-26 23:41:00,57.0,56.0,-100.00,NE,48,0.0,3.0,95,0.00,,,0.00,0.000000,,2013-01-27 05:41:00,
2013-01-26 23:50:00,55.0,54.0,-100.00,NE,39,0.0,2.0,95,0.00,,,0.00,0.000000,,2013-01-27 05:50:00,